• In Germany
  • List of Countries
  • For 7 days
  • Water Temperature
  • Satellite Maps
  • Weather Map
  • Weather Widgets
  • user-avatar
    Login

    Hourly Weather Sevan

    Today, 21 July, Friday

    Time Temperature Precipitation Wind Pressure Humidity
    00:00 +19°C° 0 mm 3 mps 641 mmHg 57%
    01:00 +18°C° 0 mm 3 mps 641 mmHg 57%
    02:00 +18°C° 0 mm 2 mps 641 mmHg 56%
    03:00 +18°C° 0 mm 2 mps 641 mmHg 56%
    04:00 +18°C° 0 mm 2 mps 641 mmHg 56%
    05:00 +19°C° 0 mm 2 mps 641 mmHg 56%
    06:00 +19°C° 0 mm 2 mps 642 mmHg 55%
    07:00 +21°C° 0 mm 2 mps 642 mmHg 49%
    08:00 +25°C° 0 mm 2 mps 642 mmHg 43%
    09:00 +27°C° 0 mm 2 mps 643 mmHg 37%
    10:00 +28°C° 0 mm 2 mps 643 mmHg 34%
    11:00 +30°C° 0 mm 2 mps 643 mmHg 32%
    12:00 +31°C° 0 mm 2 mps 643 mmHg 29%
    13:00 +32°C° 0 mm 2 mps 643 mmHg 30%
    14:00 +32°C° 0 mm 2 mps 643 mmHg 30%
    15:00 +33°C° 0 mm 3 mps 643 mmHg 30%
    16:00 +31°C° 0 mm 3 mps 643 mmHg 34%
    17:00 +30°C° 0 mm 3 mps 642 mmHg 38%
    18:00 +30°C° 0 mm 3 mps 642 mmHg 43%
    19:00 +27°C° 0 mm 3 mps 642 mmHg 48%
    20:00 +25°C° 0 mm 3 mps 642 mmHg 52%
    21:00 +22°C° 0 mm 3 mps 642 mmHg 57%
    22:00 +21°C° 0 mm 3 mps 642 mmHg 55%
    23:00 +20°C° 0 mm 3 mps 642 mmHg 52%

    Tomorrow, 22 July, Saturday

    Time Temperature Precipitation Wind Pressure Humidity
    00:00 +20°C° 0 mm 3 mps 642 mmHg 49%
    01:00 +19°C° 0 mm 3 mps 642 mmHg 48%
    02:00 +19°C° 0 mm 2 mps 642 mmHg 47%
    03:00 +18°C° 0 mm 2 mps 642 mmHg 46%
    04:00 +19°C° 0 mm 2 mps 642 mmHg 46%
    05:00 +19°C° 0 mm 2 mps 642 mmHg 46%
    06:00 +19°C° 0 mm 2 mps 643 mmHg 46%
    07:00 +23°C° 0 mm 2 mps 643 mmHg 42%
    08:00 +25°C° 0 mm 2 mps 644 mmHg 37%
    09:00 +28°C° 0 mm 2 mps 644 mmHg 32%
    10:00 +29°C° 0 mm 2 mps 644 mmHg 30%
    11:00 +30°C° 0 mm 2 mps 644 mmHg 28%
    12:00 +32°C° 0 mm 2 mps 644 mmHg 27%
    13:00 +33°C° 0 mm 3 mps 644 mmHg 27%
    14:00 +33°C° 0 mm 3 mps 644 mmHg 27%
    15:00 +34°C° 0 mm 3 mps 643 mmHg 27%
    16:00 +33°C° 0 mm 3 mps 643 mmHg 31%
    17:00 +30°C° 0 mm 3 mps 643 mmHg 35%
    18:00 +29°C° 0 mm 3 mps 642 mmHg 40%
    19:00 +27°C° 0 mm 3 mps 642 mmHg 44%
    20:00 +25°C° 0 mm 3 mps 642 mmHg 49%
    21:00 +21°C° 0 mm 3 mps 642 mmHg 53%
    22:00 +21°C° 0 mm 3 mps 642 mmHg 52%
    23:00 +20°C° 0 mm 3 mps 642 mmHg 52%

    Day after tomorrow, 23 July, Sunday

    Time Temperature Precipitation Wind Pressure Humidity
    00:00 +20°C° 0 mm 3 mps 642 mmHg 51%
    01:00 +19°C° 0 mm 3 mps 641 mmHg 51%
    02:00 +19°C° 0 mm 2 mps 641 mmHg 52%
    03:00 +19°C° 0 mm 2 mps 641 mmHg 52%
    04:00 +19°C° 0 mm 2 mps 641 mmHg 52%
    05:00 +19°C° 0 mm 2 mps 641 mmHg 52%
    06:00 +21°C° 0 mm 1 mps 641 mmHg 52%
    07:00 +23°C° 0 mm 2 mps 642 mmHg 46%
    08:00 +25°C° 0 mm 2 mps 642 mmHg 39%
    09:00 +28°C° 0 mm 2 mps 643 mmHg 33%
    10:00 +29°C° 0 mm 2 mps 642 mmHg 31%
    11:00 +30°C° 0 mm 2 mps 642 mmHg 29%
    12:00 +32°C° 0 mm 2 mps 642 mmHg 27%
    13:00 +32°C° 0 mm 2 mps 642 mmHg 27%
    14:00 +32°C° 0 mm 2 mps 642 mmHg 28%
    15:00 +34°C° 0 mm 2 mps 641 mmHg 28%
    16:00 +33°C° 0 mm 3 mps 641 mmHg 32%
    17:00 +30°C° 0 mm 3 mps 640 mmHg 37%
    18:00 +29°C° 0 mm 4 mps 640 mmHg 41%
    19:00 +27°C° 0 mm 4 mps 640 mmHg 44%
    20:00 +25°C° 0 mm 4 mps 640 mmHg 48%
    21:00 +21°C° 0 mm 4 mps 640 mmHg 51%
    22:00 +21°C° 0 mm 3 mps 640 mmHg 51%
    23:00 +20°C° 0 mm 3 mps 640 mmHg 50%

    24 July, Monday

    Time Temperature Precipitation Wind Pressure Humidity
    00:00 +19°C° 0 mm 3 mps 640 mmHg 50%
    01:00 +18°C° 0 mm 3 mps 640 mmHg 54%
    02:00 +18°C° 0 mm 2 mps 639 mmHg 59%
    03:00 +17°C° 0 mm 2 mps 639 mmHg 63%
    04:00 +18°C° 0 mm 2 mps 639 mmHg 64%
    05:00 +18°C° 0 mm 2 mps 639 mmHg 64%
    06:00 +18°C° 0 mm 2 mps 640 mmHg 65%
    07:00 +21°C° 0 mm 2 mps 640 mmHg 57%
    08:00 +24°C° 0 mm 2 mps 641 mmHg 50%
    09:00 +26°C° 0 mm 2 mps 641 mmHg 42%
    10:00 +28°C° 0 mm 2 mps 641 mmHg 39%
    11:00 +29°C° 0 mm 2 mps 641 mmHg 36%
    12:00 +30°C° 0 mm 2 mps 641 mmHg 32%
    13:00 +31°C° 0 mm 2 mps 641 mmHg 32%
    14:00 +31°C° 0 mm 3 mps 640 mmHg 32%
    15:00 +31°C° 0 mm 3 mps 640 mmHg 31%
    16:00 +31°C° 0.2 mm 3 mps 640 mmHg 35%
    17:00 +30°C° 0.2 mm 3 mps 640 mmHg 40%
    18:00 +29°C° 0.2 mm 3 mps 639 mmHg 44%
    19:00 +27°C° 0 mm 3 mps 639 mmHg 50%
    20:00 +24°C° 0 mm 3 mps 639 mmHg 56%
    21:00 +21°C° 0 mm 3 mps 639 mmHg 62%
    22:00 +21°C° 0.1 mm 3 mps 639 mmHg 61%
    23:00 +20°C° 0.1 mm 3 mps 639 mmHg 61%

    25 July, Tuesday

    Time Temperature Precipitation Wind Pressure Humidity
    00:00 +19°C° 0.1 mm 3 mps 639 mmHg 60%
    01:00 +19°C° 0 mm 2 mps 639 mmHg 62%
    02:00 +19°C° 0 mm 2 mps 639 mmHg 63%
    03:00 +18°C° 0 mm 2 mps 639 mmHg 64%
    04:00 +19°C° 0 mm 2 mps 639 mmHg 63%
    05:00 +19°C° 0 mm 2 mps 639 mmHg 61%
    06:00 +19°C° 0 mm 2 mps 639 mmHg 60%
    07:00 +21°C° 0 mm 2 mps 640 mmHg 52%
    08:00 +25°C° 0 mm 2 mps 640 mmHg 44%
    09:00 +27°C° 0 mm 2 mps 641 mmHg 37%
    10:00 +28°C° 0 mm 2 mps 641 mmHg 34%
    11:00 +30°C° 0 mm 2 mps 640 mmHg 31%
    12:00 +31°C° 0 mm 3 mps 640 mmHg 28%
    13:00 +31°C° 0 mm 3 mps 640 mmHg 28%
    14:00 +33°C° 0 mm 3 mps 640 mmHg 28%
    15:00 +33°C° 0 mm 3 mps 640 mmHg 28%
    16:00 +31°C° 0.4 mm 3 mps 639 mmHg 32%
    17:00 +30°C° 0.4 mm 3 mps 639 mmHg 36%
    18:00 +29°C° 0.4 mm 3 mps 639 mmHg 40%
    19:00 +27°C° 0.3 mm 3 mps 639 mmHg 48%
    20:00 +24°C° 0.3 mm 3 mps 639 mmHg 57%
    21:00 +21°C° 0.3 mm 3 mps 639 mmHg 65%
    22:00 +20°C° 0.2 mm 3 mps 639 mmHg 67%
    23:00 +19°C° 0.2 mm 3 mps 639 mmHg 69%

    26 July, Wednesday

    Time Temperature Precipitation Wind Pressure Humidity
    00:00 +19°C° 0.2 mm 3 mps 639 mmHg 71%
    01:00 +18°C° 0 mm 2 mps 639 mmHg 72%
    02:00 +18°C° 0 mm 2 mps 639 mmHg 73%
    03:00 +17°C° 0 mm 2 mps 639 mmHg 74%
    04:00 +18°C° 0 mm 2 mps 639 mmHg 72%
    05:00 +18°C° 0 mm 2 mps 640 mmHg 69%
    06:00 +20°C° 0 mm 1 mps 640 mmHg 67%
    07:00 +22°C° 0 mm 1 mps 640 mmHg 57%
    08:00 +25°C° 0 mm 1 mps 641 mmHg 47%
    09:00 +27°C° 0 mm 2 mps 642 mmHg 37%
    10:00 +29°C° 0 mm 2 mps 642 mmHg 34%
    11:00 +30°C° 0 mm 2 mps 642 mmHg 30%
    12:00 +31°C° 0 mm 2 mps 642 mmHg 27%
    13:00 +32°C° 0 mm 2 mps 642 mmHg 26%
    14:00 +32°C° 0 mm 2 mps 642 mmHg 26%
    15:00 +34°C° 0 mm 2 mps 641 mmHg 25%
    16:00 +32°C° 0.2 mm 2 mps 641 mmHg 30%
    17:00 +31°C° 0.2 mm 2 mps 641 mmHg 35%
    18:00 +30°C° 0.2 mm 2 mps 641 mmHg 39%
    19:00 +27°C° 0.1 mm 3 mps 641 mmHg 48%
    20:00 +25°C° 0.1 mm 3 mps 641 mmHg 56%
    21:00 +22°C° 0.1 mm 3 mps 641 mmHg 65%
    22:00 +21°C° 0.1 mm 3 mps 641 mmHg 66%
    23:00 +20°C° 0.1 mm 3 mps 641 mmHg 67%
    Show more